Temperature
29 29 29 29 29 28 28 29 29 29 29 29 27 26 25 23 23 22 20 19 19 18 17 17 17 16 16 16 16 16 16 16 16 16 16 16 15 15 15 15 15 15 15 15
27 28 28 28 29 28 28 29 29 29 29 27 25 24 23 23 22 21 20 19 18 18 17 17 17 16 16 16 16 16 16 16 16 15 15 15 15 15 15 15 15 15 15 15
27 28 27 27 28 28 28 29 29 28 28 26 25 23 22 22 21 21 20 19 18 17 17 17 17 16 16 16 16 16 16 15 15 15 15 15 15 15 15 15 14 14 14 14
27 26 25 28 27 28 28 28 28 27 26 25 23 21 20 20 20 20 19 18 17 17 16 16 16 16 16 16 16 15 15 15 15 15 15 15 15 14 14 14 14 14 14 14
26 26 26 26 26 27 27 27 26 26 24 22 20 20 19 18 18 18 17 17 17 17 16 16 16 16 16 15 15 15 15 15 15 15 15 14 14 14 14 14 13 13 13 13
25 25 25 26 26 24 26 25 25 24 23 22 22 24 21 17 16 16 16 16 16 16 16 16 16 16 15 15 15 15 15 15 14 14 14 14 14 14 13 13 13 13 12 12
24 24 26 25 24 24 24 25 23 22 22 22 22 21 17 16 15 15 15 15 15 15 15 15 15 15 15 15 15 15 14 14 14 14 14 14 13 13 13 13 12 12 12 11
24 24 24 23 23 24 23 21 21 21 20 19 17 16 15 15 15 15 15 15 15 15 15 15 15 15 14 14 14 14 14 14 14 13 13 13 13 13 12 12 12 11 10 10
24 23 20 20 20 19 19 19 19 19 18 17 16 16 15 14 14 14 14 14 14 14 14 14 14 14 14 14 14 14 14 13 13 13 12 12 12 12 11 11 11 10 10 9
21 21 20 19 18 18 18 18 17 17 17 16 16 15 14 14 14 13 13 13 13 13 14 14 14 14 13 13 13 13 13 12 12 12 12 11 11 11 10 10 10 9 9 8
21 20 19 18 18 17 17 16 16 16 16 15 15 14 14 13 13 13 13 12 12 13 13 13 13 13 13 13 13 12 12 12 11 11 11 10 10 9 9 9 9 9 8 8
21 20 20 19 17 16 16 15 15 15 14 14 14 13 13 12 12 12 12 12 12 12 12 12 12 12 12 12 12 12 11 11 10 10 10 9 9 8 8 8 8 8 7 7
18 17 17 16 15 15 15 14 14 14 13 13 12 12 12 12 12 11 11 11 11 11 11 11 11 11 11 11 11 11 11 10 10 9 9 8 8 7 7 6 6 6 6 6
15 15 16 15 14 14 13 13 13 13 12 12 12 12 12 11 11 11 11 10 10 10 10 10 10 10 10 10 10 10 10 9 9 8 8 8 7 7 7 6 5 5 5 5
15 15 15 14 13 13 12 12 12 12 11 11 11 11 11 11 10 10 10 10 10 10 10 10 10 9 9 9 9 9 9 8 8 8 7 7 7 6 6 6 5 5 4 4
14 14 13 13 12 12 12 12 12 11 11 11 10 10 10 10 10 9 9 9 9 9 9 9 9 9 8 9 9 8 8 8 8 7 7 7 6 6 6 5 5 5 5 4
14 13 13 13 12 12 11 11 11 11 10 10 10 10 9 9 9 9 9 9 9 9 9 9 8 8 8 8 8 8 8 7 7 7 7 7 6 6 6 6 6 5 5 5
13 13 13 12 12 11 11 10 10 10 9 9 9 9 9 9 9 9 9 9 9 8 8 8 8 8 8 8 8 8 7 7 7 7 6 6 6 6 6 6 6 5 5 4
12 12 12 11 11 10 10 10 9 9 9 9 9 9 9 9 9 8 8 8 8 8 8 8 8 8 8 7 8 7 7 7 7 7 6 6 6 6 6 6 6 5 5 5
11 11 11 10 10 10 9 9 9 9 8 9 9 8 8 8 8 8 8 8 8 8 8 8 7 7 7 7 8 7 7 7 7 7 7 7 7 6 6 6 6 5 5 5
10 10 10 9 9 9 9 9 9 8 8 8 8 8 8 8 8 8 8 8 8 8 8 7 7 7 7 7 8 8 7 7 7 7 7 7 7 6 6 6 6 6 5 5
10 9 9 9 9 9 8 8 8 8 8 8 8 8 8 8 8 8 8 8 7 8 8 8 8 7 7 7 8 8 8 7 7 7 7 7 7 6 6 6 6 6 5 5
9 9 9 9 9 8 8 8 8 8 8 8 8 8 8 8 8 8 8 7 7 7 8 8 7 7 7 7 8 8 7 7 7 7 7 7 7 6 6 6 6 6 5 5
9 9 9 8 8 8 8 8 8 8 8 8 8 8 8 8 8 8 8 7 7 7 7 7 7 7 7 7 7 7 7 7 7 7 7 7 7 6 6 6 6 6 5 5
9 8 8 8 8 8 8 8 8 8 8 8 8 8 8 8 8 8 7 7 7 7 7 7 7 7 7 7 7 7 7 7 7 7 7 7 7 6 6 6 6 6 5 5
8 8 8 9 9 8 8 8 9 8 9 8 8 8 8 8 8 8 7 7 7 7 7 7 7 7 7 7 7 7 7 7 6 6 7 7 6 6 6 6 5 6 5 5
8 8 8 8 8 9 9 9 9 9 9 9 8 8 8 8 8 8 7 7 7 7 7 7 7 7 7 7 7 7 7 7 7 7 7 6 6 6 6 6 6 5 5 5
Wind_Speed
11 5 7 12 14 15 16 14 11 9 8 3 4 5 5 6 7 8 8 8 8 7 7 7 7 7 6 6 6 7 7 7 7 7 7 7 7 7 6 6 6 6 6 5
11 10 11 12 12 14 15 12 11 9 4 5 6 6 6 6 7 7 7 7 8 7 8 8 7 7 7 7 7 7 8 8 8 8 7 7 7 7 7 7 6 6 6 6
12 11 11 15 14 13 12 10 10 9 3 7 6 6 5 5 5 6 6 6 7 7 7 7 7 7 7 7 7 7 7 8 8 8 8 7 8 8 8 8 8 8 7 7
11 10 15 7 3 7 9 8 5 1 5 5 7 7 6 4 4 5 5 5 5 5 6 6 7 7 7 7 8 8 8 8 8 8 8 8 8 8 8 8 8 8 8 9
11 15 14 6 5 7 9 8 5 4 6 7 10 9 6 5 4 4 4 4 4 4 5 6 6 7 8 7 8 7 7 8 8 9 9 9 9 9 8 9 9 9 9 10
11 14 14 8 7 4 6 8 5 5 7 8 8 6 5 5 4 5 4 4 4 4 5 6 6 7 8 8 8 8 7 7 8 9 10 10 10 11 10 10 11 11 11 11
14 13 10 4 6 6 10 4 5 5 6 6 3 4 7 6 5 5 4 4 4 4 5 5 5 7 7 7 7 7 8 8 8 9 10 11 12 11 12 12 12 12 13 12
13 14 10 5 6 5 1 5 5 5 5 6 7 8 7 6 5 5 4 4 4 5 5 5 5 6 7 6 6 7 9 9 10 9 9 11 13 13 13 14 14 13 13 13
6 3 5 3 3 4 3 4 5 5 6 7 7 7 6 5 5 4 4 4 4 5 6 5 4 5 6 6 7 9 10 10 11 11 10 10 12 12 11 11 11 11 11 11
3 3 4 4 4 4 4 4 5 5 5 6 6 6 6 5 4 4 4 4 4 5 5 5 5 5 5 6 8 10 11 11 12 13 12 11 9 9 9 9 11 11 11 11
4 4 5 5 4 4 5 5 5 5 5 5 6 6 6 5 5 4 4 4 4 5 6 6 6 6 6 7 9 11 12 13 13 12 13 12 12 10 9 8 7 10 11 11
3 4 3 5 5 4 4 4 5 5 6 6 6 7 7 7 6 5 5 5 6 7 7 7 7 8 7 7 10 12 13 12 11 11 12 13 13 14 19 16 18 17 14 12
1 3 3 5 5 4 4 5 5 6 6 6 6 7 8 8 7 7 7 7 7 8 8 8 9 9 8 8 10 12 13 13 11 12 12 12 12 13 14 15 19 18 16 16
3 4 3 4 4 5 6 6 7 7 7 7 7 8 9 9 9 8 8 8 9 10 10 10 11 10 10 11 12 13 14 14 13 12 12 12 12 12 12 14 13 11 13 15
4 3 3 4 5 6 6 7 8 8 8 8 8 9 10 10 10 9 9 9 10 11 11 12 12 11 11 12 14 14 13 11 11 12 12 12 12 12 12 13 13 12 11 10
4 4 6 7 7 7 7 8 8 8 9 9 9 10 10 11 11 10 9 10 11 12 12 12 13 12 12 13 14 12 12 15 13 12 12 12 12 12 12 12 12 11 10 10
7 7 8 8 8 8 7 7 8 9 10 10 11 11 12 12 12 11 11 11 12 12 12 12 12 12 12 12 13 12 12 13 14 12 11 11 11 11 11 11 10 10 9 8
6 7 7 8 8 9 9 9 10 11 11 12 12 12 12 12 12 12 12 12 13 13 12 11 12 12 12 12 12 12 12 11 11 12 11 10 11 10 10 10 11 11 10 8
8 8 9 9 9 9 10 11 12 12 12 13 13 13 12 12 12 12 12 12 13 12 11 11 11 12 12 12 11 10 11 12 12 11 11 10 10 10 10 10 9 9 9 8
10 11 11 11 11 11 12 12 13 13 12 13 14 13 13 12 12 12 12 11 9 9 11 11 11 11 12 10 8 10 10 11 11 11 10 9 9 9 9 9 9 9 8 7
13 13 13 13 13 13 13 13 13 13 13 13 13 13 13 12 12 11 11 11 10 10 11 9 9 10 10 9 7 10 10 10 10 9 9 9 9 9 8 8 8 7 7 6
13 14 14 14 14 13 12 12 13 14 14 13 14 14 13 12 12 11 10 9 10 8 8 9 9 10 9 8 8 9 9 9 9 8 8 8 8 8 8 8 7 7 6 6
12 13 14 14 14 14 14 13 14 13 14 13 13 13 12 10 9 10 10 9 9 7 7 8 11 11 7 6 7 8 8 8 8 8 7 7 7 7 7 8 7 6 6 5
14 14 14 14 14 14 14 13 13 12 12 12 11 12 11 9 9 8 9 10 8 7 8 11 11 8 6 6 7 7 8 8 7 7 7 7 7 7 7 6 6 6 6 5
15 14 14 15 14 12 13 14 14 13 12 10 11 10 8 7 8 9 10 10 10 8 9 10 8 6 6 6 7 7 7 6 6 6 7 6 6 6 6 6 6 5 5 5
14 12 11 11 11 11 11 11 10 10 10 10 9 8 8 8 9 9 9 10 11 8 7 8 8 7 6 6 7 7 7 7 7 6 6 6 6 6 5 5 6 5 5 5
13 12 10 10 10 9 9 9 9 9 9 9 9 8 8 8 8 8 9 9 9 8 7 7 7 7 6 7 7 7 6 6 7 6 6 6 5 5 6 6 5 5 5 6
Wind_Direction
248 248 217 215 210 207 218 236 248 244 240 184 147 152 148 151 154 154 155 163 170 170 167 167 168 166 167 163 158 155 153 153 153 154 153 151 149 148 150 154 158 154 151 154
228 224 223 224 220 214 220 231 243 251 225 105 112 125 137 148 160 161 160 165 170 169 169 171 173 172 169 165 158 155 152 152 149 146 146 142 139 139 138 135 135 133 134 133
229 215 218 225 218 214 215 222 231 235 187 130 132 130 136 146 155 156 156 160 165 167 170 172 174 172 168 163 158 156 154 151 148 143 140 138 136 133 133 130 123 118 116 112
233 214 229 221 167 219 221 216 223 172 120 124 121 112 98 96 122 132 140 147 152 160 164 167 164 162 160 156 157 156 155 153 146 141 137 133 128 126 125 122 118 113 106 103
230 227 227 192 178 199 212 214 202 185 146 132 130 129 106 81 84 101 112 125 137 147 151 150 153 154 154 153 152 154 158 156 150 145 141 135 130 126 122 117 110 105 103 102
227 237 234 215 153 173 219 215 165 169 161 158 178 202 126 104 91 84 88 103 119 132 137 138 144 152 153 154 154 158 160 155 150 147 143 138 132 126 120 114 111 109 104 101
227 233 237 119 141 181 221 210 128 151 154 164 150 69 108 109 93 88 88 95 110 121 125 129 143 153 155 151 153 151 146 142 138 137 136 131 125 123 121 116 111 106 101 95
229 235 228 122 173 210 74 86 120 131 130 117 106 109 115 112 103 97 95 100 111 117 115 115 130 145 147 146 141 134 132 129 126 125 124 124 124 123 122 121 116 110 105 99
233 233 81 108 106 79 85 109 111 118 118 125 128 128 124 116 107 101 96 104 112 118 115 109 117 138 140 137 131 127 123 121 118 112 109 114 119 122 121 120 118 116 113 108
203 158 132 126 120 110 103 108 105 107 117 129 131 131 128 117 107 103 97 100 108 114 115 107 102 105 114 120 125 124 122 119 115 112 106 100 102 107 112 117 120 120 118 115
209 162 157 155 137 122 114 110 109 110 112 120 130 132 126 118 110 103 97 94 104 109 108 106 104 101 102 114 124 125 122 118 114 110 106 96 85 78 91 87 102 117 119 120
219 152 176 140 125 120 121 118 118 119 114 115 125 127 125 117 110 106 103 101 104 104 101 98 99 98 100 112 126 125 120 118 116 113 109 107 101 86 65 74 72 72 81 102
101 106 102 119 122 118 116 110 112 114 115 115 117 121 122 118 112 107 102 102 102 102 100 98 95 95 99 108 116 117 118 118 117 117 116 116 115 113 106 84 73 71 78 89
145 140 146 144 130 125 120 115 112 107 107 110 115 118 116 112 108 103 100 103 105 104 102 102 99 96 100 106 108 109 112 113 116 116 118 118 118 118 119 119 113 100 86 91
188 192 167 145 133 132 132 130 123 116 113 112 115 118 118 115 110 105 106 109 109 106 105 104 101 100 105 109 111 112 114 116 115 117 118 118 119 119 118 117 117 117 118 111
171 161 162 160 149 144 143 140 133 127 124 122 119 117 115 113 111 108 109 112 110 106 106 106 104 107 110 110 110 108 109 115 120 121 121 123 123 123 123 123 124 126 127 131
181 181 174 165 157 152 147 141 135 131 129 127 123 122 118 115 111 107 104 102 103 104 106 107 108 110 111 113 114 115 117 121 125 123 122 123 124 125 127 129 129 129 127 119
200 187 177 167 159 151 143 135 133 132 131 129 127 125 123 120 116 112 110 107 103 100 101 107 112 115 115 116 116 120 124 128 126 122 124 126 127 129 130 130 132 131 132 139
171 165 158 152 149 144 139 136 133 131 130 130 128 125 122 120 119 118 117 114 111 109 109 114 118 121 118 117 119 124 126 126 124 124 125 129 133 131 134 137 139 141 143 147
152 146 140 137 137 136 133 132 131 130 130 131 129 127 124 122 121 120 118 111 108 113 123 125 127 123 124 127 132 127 128 130 130 132 135 140 137 138 141 143 145 146 146 146
140 137 135 135 133 132 132 134 133 132 132 133 133 131 128 126 126 124 121 114 110 116 121 124 126 127 128 132 147 132 133 133 135 138 143 145 146 147 147 147 149 150 149 149
134 135 134 134 132 131 133 135 134 134 134 135 133 131 128 127 125 119 112 116 123 128 133 132 127 116 125 142 136 132 136 138 142 145 148 149 149 150 150 153 155 156 157 159
131 131 131 132 131 131 133 135 135 135 134 134 134 134 132 131 133 131 128 128 133 141 134 121 117 125 150 158 138 140 141 144 146 149 151 153 154 155 157 162 162 164 168 171
127 126 126 127 127 128 128 129 127 127 128 129 130 132 133 133 133 128 123 120 118 132 125 117 130 147 187 150 141 144 146 150 153 156 157 161 162 163 165 169 170 173 176 186
124 124 125 126 126 125 125 126 125 127 129 129 131 134 136 133 131 126 129 134 137 145 133 133 147 174 181 152 149 149 152 155 158 161 165 168 171 170 174 179 182 188 195 202
124 123 122 123 121 124 129 130 131 133 132 131 131 131 130 128 129 132 136 142 144 147 144 148 159 182 178 163 160 163 162 156 165 181 178 178 181 184 187 189 192 201 203 208
115 114 115 115 119 124 128 131 132 134 135 135 133 132 133 134 137 141 143 147 152 157 158 162 168 176 176 173 171 172 175 176 181 184 184 188 191 194 194 198 206 207 212 214
Height
1444 1442 1444 1447 1449 1453 1456 1453 1457 1455 1454 1455 1460 1465 1470 1473 1476 1478 1481 1483 1484 1486 1487 1489 1491 1492 1493 1495 1495 1496 1498 1499 1501 1503 1506 1508 1510 1513 1515 1518 1520 1523 1525 1528
1449 1445 1445 1448 1446 1449 1451 1451 1451 1451 1454 1458 1464 1467 1471 1473 1475 1478 1480 1482 1483 1485 1487 1488 1489 1491 1492 1494 1495 1496 1497 1499 1501 1503 1505 1508 1510 1512 1515 1517 1519 1521 1524 1526
1449 1445 1449 1454 1446 1447 1449 1448 1449 1452 1454 1460 1465 1469 1472 1474 1476 1477 1480 1481 1483 1484 1485 1487 1489 1490 1492 1493 1495 1496 1497 1499 1501 1503 1505 1507 1510 1512 1514 1516 1519 1521 1523 1525
1446 1452 1465 1445 1443 1444 1446 1448 1450 1453 1458 1462 1467 1472 1474 1475 1477 1478 1480 1481 1483 1484 1485 1486 1488 1489 1491 1493 1494 1496 1497 1499 1500 1502 1505 1507 1510 1512 1514 1516 1518 1521 1523 1525
1447 1452 1450 1448 1446 1447 1449 1451 1452 1455 1460 1465 1469 1472 1475 1477 1478 1479 1480 1481 1482 1483 1484 1485 1487 1488 1490 1492 1493 1495 1497 1499 1500 1502 1504 1506 1509 1511 1514 1516 1518 1520 1522 1524
1448 1454 1455 1443 1444 1449 1451 1454 1455 1457 1461 1464 1467 1464 1473 1478 1478 1479 1480 1480 1481 1482 1484 1485 1486 1488 1490 1491 1493 1494 1496 1498 1500 1502 1504 1506 1508 1511 1513 1515 1518 1520 1522 1524
1447 1450 1443 1443 1448 1451 1458 1454 1457 1459 1462 1464 1466 1468 1475 1477 1478 1479 1479 1480 1481 1482 1483 1484 1486 1487 1489 1490 1492 1494 1496 1498 1499 1501 1503 1505 1507 1510 1512 1515 1517 1520 1522 1524
1445 1450 1448 1448 1449 1450 1454 1458 1459 1461 1464 1467 1470 1472 1474 1476 1478 1479 1479 1480 1481 1482 1482 1484 1485 1486 1487 1489 1491 1493 1495 1497 1499 1501 1503 1505 1507 1509 1512 1514 1517 1520 1522 1524
1440 1445 1451 1452 1453 1457 1459 1460 1462 1464 1466 1468 1470 1472 1474 1476 1477 1478 1479 1480 1481 1481 1482 1483 1484 1485 1486 1488 1490 1492 1494 1496 1498 1500 1503 1505 1507 1509 1512 1514 1517 1519 1522 1524
1446 1447 1452 1455 1457 1459 1460 1462 1464 1466 1467 1469 1470 1472 1474 1476 1477 1478 1479 1479 1480 1481 1481 1482 1483 1484 1485 1487 1489 1491 1493 1495 1497 1500 1502 1505 1508 1510 1513 1515 1518 1520 1523 1526
1446 1449 1453 1456 1458 1460 1461 1463 1464 1466 1467 1469 1471 1472 1473 1475 1476 1477 1478 1479 1479 1480 1480 1481 1482 1483 1485 1486 1489 1491 1493 1495 1498 1500 1503 1506 1508 1511 1514 1517 1520 1522 1525 1528
1444 1449 1451 1455 1458 1460 1461 1463 1464 1466 1467 1469 1470 1471 1473 1474 1476 1477 1478 1478 1479 1480 1480 1481 1482 1483 1485 1486 1488 1490 1492 1495 1498 1501 1504 1507 1509 1513 1517 1520 1523 1526 1528 1530
1450 1451 1453 1456 1458 1460 1461 1463 1464 1465 1467 1468 1470 1471 1472 1474 1475 1477 1478 1479 1479 1480 1481 1482 1483 1484 1486 1487 1489 1491 1493 1496 1499 1503 1506 1509 1513 1515 1518 1523 1527 1530 1532 1535
1451 1452 1454 1456 1458 1460 1461 1462 1464 1465 1467 1468 1470 1472 1473 1474 1476 1477 1478 1480 1480 1481 1482 1483 1485 1486 1488 1489 1491 1493 1496 1499 1502 1506 1509 1512 1516 1519 1522 1525 1529 1533 1537 1539
1451 1452 1454 1456 1458 1460 1461 1462 1464 1465 1467 1469 1471 1472 1474 1475 1477 1479 1480 1481 1482 1483 1485 1486 1487 1489 1491 1493 1495 1497 1499 1503 1506 1509 1513 1516 1520 1523 1527 1529 1533 1536 1539 1542
1450 1452 1453 1455 1457 1459 1461 1463 1464 1466 1468 1470 1472 1474 1475 1477 1479 1481 1482 1484 1485 1486 1488 1489 1490 1493 1495 1497 1499 1501 1504 1507 1510 1513 1517 1520 1524 1527 1530 1533 1537 1540 1542 1544
1448 1450 1452 1454 1456 1459 1461 1463 1464 1466 1468 1471 1473 1475 1477 1479 1481 1483 1485 1487 1489 1490 1492 1493 1495 1497 1499 1502 1504 1506 1508 1512 1515 1518 1521 1524 1528 1531 1534 1537 1539 1542 1545 1547
1447 1449 1451 1453 1455 1458 1460 1463 1465 1468 1470 1472 1475 1477 1479 1481 1483 1486 1488 1490 1492 1494 1496 1498 1500 1502 1504 1506 1509 1511 1514 1517 1520 1523 1526 1529 1532 1535 1537 1540 1542 1545 1547 1549
1444 1447 1450 1452 1455 1457 1460 1463 1466 1468 1471 1474 1477 1480 1482 1485 1487 1489 1492 1494 1496 1498 1501 1503 1505 1507 1509 1511 1513 1516 1519 1521 1524 1527 1529 1532 1535 1537 1540 1542 1545 1547 1549 1551
1443 1446 1449 1452 1455 1457 1460 1463 1466 1469 1473 1476 1479 1482 1485 1488 1490 1493 1495 1498 1500 1502 1504 1507 1509 1511 1513 1515 1517 1520 1523 1525 1527 1530 1533 1535 1538 1540 1542 1544 1546 1549 1550 1552
1443 1446 1449 1452 1455 1459 1461 1464 1468 1471 1475 1478 1481 1485 1488 1491 1494 1496 1499 1501 1504 1506 1508 1510 1512 1514 1516 1518 1521 1524 1526 1528 1530 1533 1535 1538 1540 1542 1544 1546 1547 1549 1550 1552
1444 1447 1450 1454 1457 1460 1464 1467 1471 1474 1478 1481 1484 1487 1490 1494 1497 1500 1502 1504 1506 1508 1511 1514 1516 1517 1519 1522 1525 1527 1529 1531 1533 1535 1537 1539 1541 1543 1544 1546 1547 1549 1550 1552
1446 1449 1452 1456 1459 1463 1467 1470 1474 1477 1481 1484 1487 1490 1493 1497 1500 1502 1505 1507 1509 1512 1515 1516 1518 1519 1522 1525 1527 1529 1531 1532 1534 1536 1538 1540 1541 1543 1544 1546 1547 1549 1550 1551
1449 1452 1456 1459 1463 1466 1470 1474 1477 1481 1484 1487 1491 1494 1497 1500 1503 1506 1507 1509 1512 1514 1517 1518 1520 1522 1524 1527 1529 1530 1532 1533 1535 1537 1538 1540 1542 1543 1544 1545 1547 1548 1549 1549
1452 1456 1460 1463 1467 1470 1473 1477 1480 1484 1487 1491 1494 1497 1500 1503 1505 1507 1509 1511 1513 1516 1518 1520 1522 1524 1526 1528 1530 1531 1532 1534 1536 1537 1538 1540 1541 1542 1543 1544 1545 1546 1547 1548
1457 1461 1464 1468 1471 1474 1477 1480 1484 1487 1490 1494 1497 1500 1502 1505 1507 1509 1511 1513 1516 1518 1520 1521 1523 1525 1527 1529 1530 1531 1533 1534 1535 1536 1538 1539 1540 1541 1542 1543 1544 1545 1545 1546
1462 1466 1469 1472 1475 1478 1481 1484 1487 1490 1493 1496 1499 1501 1504 1506 1508 1511 1513 1515 1517 1519 1521 1522 1524 1525 1527 1528 1530 1531 1532 1533 1535 1536 1537 1538 1539 1540 1540 1541 1542 1543 1543 1544